When you browse on this site, cookies collect data to enhance your experience and personalize the content and advertising you see.
Visit our Privacy Policy to learn more. By continuing to use the site, you agree to this use of cookies and data.
  • Em Portugal
  • Lista de países
  • Para 7 dias
  • Temperatura da água
  • Mapas de satélite
  • Mapa do tempo
  • Widgets de tempo
  • user-avatar
    Iniciar Sessão

    Previsão horária em Pustkowko

    Hoje, 27 Março, Quarta-feira

    Tempo Temperatura Precipitação Vento Pressão Humidade
    00:00 +1°C° 0 mm 2 m/s 766 mmHg 82%
    01:00 +1°C° 0 mm 2 m/s 766 mmHg 83%
    02:00 +1°C° 0 mm 2 m/s 766 mmHg 85%
    03:00 0°C° 0 mm 3 m/s 766 mmHg 87%
    04:00 0°C° 0 mm 3 m/s 766 mmHg 88%
    05:00 0°C° 0 mm 3 m/s 767 mmHg 83%
    06:00 +1°C° 0 mm 3 m/s 767 mmHg 78%
    07:00 +1°C° 0 mm 4 m/s 767 mmHg 72%
    08:00 +3°C° 0 mm 4 m/s 767 mmHg 75%
    09:00 +4°C° 0 mm 4 m/s 767 mmHg 77%
    10:00 +5°C° 0 mm 5 m/s 767 mmHg 80%
    11:00 +5°C° 0.2 mm 5 m/s 767 mmHg 80%
    12:00 +6°C° 0.2 mm 5 m/s 767 mmHg 80%
    13:00 +6°C° 0.2 mm 5 m/s 767 mmHg 80%
    14:00 +6°C° 0.3 mm 5 m/s 767 mmHg 83%
    15:00 +6°C° 0.3 mm 5 m/s 767 mmHg 86%
    16:00 +6°C° 0.3 mm 4 m/s 767 mmHg 89%
    17:00 +6°C° 0.1 mm 4 m/s 767 mmHg 90%
    18:00 +5°C° 0.1 mm 4 m/s 767 mmHg 92%
    19:00 +5°C° 0.1 mm 4 m/s 767 mmHg 93%
    20:00 +5°C° 0.1 mm 4 m/s 767 mmHg 94%
    21:00 +5°C° 0.1 mm 3 m/s 767 mmHg 95%
    22:00 +5°C° 0.1 mm 3 m/s 768 mmHg 96%
    23:00 +5°C° 0.1 mm 3 m/s 768 mmHg 97%

    Amanhã, 28 Março, Quinta-feira

    Tempo Temperatura Precipitação Vento Pressão Humidade
    00:00 +6°C° 0.1 mm 2 m/s 768 mmHg 97%
    01:00 +6°C° 0.1 mm 2 m/s 768 mmHg 97%
    02:00 +5°C° 0 mm 2 m/s 768 mmHg 97%
    03:00 +5°C° 0 mm 2 m/s 769 mmHg 96%
    04:00 +5°C° 0 mm 1 m/s 769 mmHg 96%
    05:00 +6°C° 0 mm 1 m/s 769 mmHg 95%
    06:00 +6°C° 0 mm 1 m/s 769 mmHg 94%
    07:00 +6°C° 0 mm 1 m/s 770 mmHg 93%
    08:00 +8°C° 0 mm 1 m/s 770 mmHg 85%
    09:00 +10°C° 0 mm 1 m/s 771 mmHg 78%
    10:00 +11°C° 0 mm 1 m/s 771 mmHg 70%
    11:00 +12°C° 0 mm 1 m/s 771 mmHg 66%
    12:00 +13°C° 0 mm 2 m/s 771 mmHg 63%
    13:00 +13°C° 0 mm 2 m/s 771 mmHg 59%
    14:00 +13°C° 0 mm 2 m/s 771 mmHg 61%
    15:00 +12°C° 0 mm 3 m/s 771 mmHg 63%
    16:00 +12°C° 0 mm 3 m/s 771 mmHg 65%
    17:00 +10°C° 0 mm 3 m/s 771 mmHg 72%
    18:00 +8°C° 0 mm 3 m/s 772 mmHg 79%
    19:00 +7°C° 0 mm 2 m/s 772 mmHg 86%
    20:00 +5°C° 0 mm 3 m/s 772 mmHg 89%
    21:00 +5°C° 0 mm 3 m/s 772 mmHg 91%
    22:00 +5°C° 0 mm 3 m/s 772 mmHg 94%
    23:00 +5°C° 0 mm 3 m/s 772 mmHg 95%

    Depois de amanhã, 29 Março, Sexta-feira

    Tempo Temperatura Precipitação Vento Pressão Humidade
    00:00 +5°C° 0 mm 3 m/s 772 mmHg 95%
    01:00 +5°C° 0 mm 3 m/s 772 mmHg 96%
    02:00 +5°C° 0 mm 3 m/s 772 mmHg 96%
    03:00 +5°C° 0 mm 3 m/s 772 mmHg 97%
    04:00 +5°C° 0 mm 3 m/s 772 mmHg 97%
    05:00 +5°C° 0 mm 3 m/s 772 mmHg 96%
    06:00 +5°C° 0 mm 3 m/s 772 mmHg 96%
    07:00 +7°C° 0 mm 3 m/s 772 mmHg 95%
    08:00 +7°C° 0 mm 4 m/s 772 mmHg 88%
    09:00 +10°C° 0 mm 4 m/s 772 mmHg 81%
    10:00 +11°C° 0 mm 4 m/s 772 mmHg 74%
    11:00 +12°C° 0 mm 5 m/s 771 mmHg 70%
    12:00 +13°C° 0 mm 5 m/s 771 mmHg 65%
    13:00 +13°C° 0 mm 5 m/s 771 mmHg 61%
    14:00 +13°C° 0 mm 5 m/s 771 mmHg 62%
    15:00 +13°C° 0 mm 5 m/s 770 mmHg 63%
    16:00 +13°C° 0 mm 5 m/s 770 mmHg 63%
    17:00 +12°C° 0 mm 4 m/s 770 mmHg 70%
    18:00 +11°C° 0 mm 3 m/s 769 mmHg 77%
    19:00 +9°C° 0 mm 3 m/s 769 mmHg 84%
    20:00 +9°C° 0 mm 3 m/s 769 mmHg 86%
    21:00 +9°C° 0 mm 3 m/s 769 mmHg 88%
    22:00 +9°C° 0 mm 3 m/s 769 mmHg 89%
    23:00 +8°C° 0 mm 3 m/s 769 mmHg 90%

    30 Março, Sábado

    Tempo Temperatura Precipitação Vento Pressão Humidade
    00:00 +7°C° 0 mm 4 m/s 769 mmHg 91%
    01:00 +7°C° 0 mm 4 m/s 769 mmHg 92%
    02:00 +7°C° 0 mm 4 m/s 768 mmHg 93%
    03:00 +6°C° 0 mm 4 m/s 768 mmHg 94%
    04:00 +6°C° 0 mm 4 m/s 768 mmHg 95%
    05:00 +6°C° 0 mm 4 m/s 768 mmHg 93%
    06:00 +6°C° 0 mm 4 m/s 768 mmHg 92%
    07:00 +6°C° 0 mm 4 m/s 768 mmHg 91%
    08:00 +8°C° 0 mm 4 m/s 767 mmHg 83%
    09:00 +10°C° 0 mm 5 m/s 767 mmHg 76%
    10:00 +13°C° 0 mm 5 m/s 767 mmHg 68%
    11:00 +13°C° 0 mm 5 m/s 766 mmHg 66%
    12:00 +14°C° 0 mm 5 m/s 766 mmHg 63%
    13:00 +15°C° 0 mm 5 m/s 765 mmHg 61%
    14:00 +15°C° 0 mm 4 m/s 765 mmHg 61%
    15:00 +15°C° 0 mm 4 m/s 764 mmHg 61%
    16:00 +15°C° 0 mm 4 m/s 763 mmHg 61%
    17:00 +14°C° 0 mm 3 m/s 763 mmHg 67%
    18:00 +14°C° 0 mm 2 m/s 763 mmHg 73%
    19:00 +12°C° 0 mm 2 m/s 762 mmHg 78%
    20:00 +12°C° 0 mm 2 m/s 762 mmHg 80%
    21:00 +10°C° 0 mm 3 m/s 762 mmHg 81%
    22:00 +10°C° 0 mm 3 m/s 761 mmHg 83%
    23:00 +10°C° 0 mm 3 m/s 761 mmHg 83%

    31 Março, Domingo

    Tempo Temperatura Precipitação Vento Pressão Humidade
    00:00 +9°C° 0 mm 3 m/s 760 mmHg 83%
    01:00 +8°C° 0 mm 4 m/s 760 mmHg 83%
    02:00 +8°C° 0.1 mm 4 m/s 760 mmHg 85%
    03:00 +8°C° 0.1 mm 4 m/s 759 mmHg 86%
    04:00 +8°C° 0.1 mm 4 m/s 759 mmHg 87%
    05:00 +8°C° 0.1 mm 5 m/s 758 mmHg 87%
    06:00 +8°C° 0.1 mm 5 m/s 758 mmHg 87%
    07:00 +8°C° 0.1 mm 6 m/s 758 mmHg 87%
    08:00 +7°C° 0 mm 6 m/s 758 mmHg 85%
    09:00 +6°C° 0 mm 7 m/s 758 mmHg 83%
    10:00 +6°C° 0 mm 8 m/s 758 mmHg 81%
    11:00 +6°C° 0 mm 8 m/s 759 mmHg 74%
    12:00 +6°C° 0 mm 8 m/s 759 mmHg 67%
    13:00 +6°C° 0 mm 9 m/s 760 mmHg 60%
    14:00 +5°C° 0 mm 8 m/s 760 mmHg 62%
    15:00 +5°C° 0 mm 8 m/s 761 mmHg 64%
    16:00 +4°C° 0 mm 7 m/s 761 mmHg 66%
    17:00 +3°C° 0.1 mm 7 m/s 762 mmHg 68%
    18:00 +2°C° 0.1 mm 7 m/s 763 mmHg 71%
    19:00 0°C° 0.1 mm 7 m/s 764 mmHg 73%
    20:00 +1°C° 0 mm 5 m/s 764 mmHg 72%
    21:00 0°C° 0 mm 4 m/s 765 mmHg 70%
    22:00 +1°C° 0 mm 3 m/s 766 mmHg 68%
    23:00 +1°C° 0 mm 3 m/s 766 mmHg 70%

    1 Abril, Segunda-feira

    Tempo Temperatura Precipitação Vento Pressão Humidade
    00:00 +1°C° 0 mm 3 m/s 766 mmHg 71%
    01:00 0°C° 0 mm 3 m/s 767 mmHg 73%
    02:00 0°C° 0 mm 3 m/s 767 mmHg 73%
    03:00 0°C° 0 mm 3 m/s 767 mmHg 74%
    04:00 0°C° 0 mm 3 m/s 767 mmHg 74%
    05:00 0°C° 0 mm 3 m/s 768 mmHg 72%
    06:00 +1°C° 0 mm 3 m/s 768 mmHg 70%
    07:00 +2°C° 0 mm 3 m/s 769 mmHg 67%
    08:00 +3°C° 0 mm 3 m/s 769 mmHg 62%
    09:00 +4°C° 0 mm 3 m/s 769 mmHg 56%
    10:00 +4°C° 0 mm 3 m/s 770 mmHg 50%
    11:00 +5°C° 0 mm 3 m/s 770 mmHg 48%
    12:00 +5°C° 0 mm 3 m/s 769 mmHg 46%
    13:00 +7°C° 0 mm 3 m/s 769 mmHg 44%
    14:00 +5°C° 0 mm 3 m/s 769 mmHg 44%
    15:00 +5°C° 0 mm 3 m/s 768 mmHg 45%
    16:00 +5°C° 0 mm 3 m/s 768 mmHg 46%
    17:00 +4°C° 0 mm 2 m/s 768 mmHg 51%
    18:00 +3°C° 0 mm 2 m/s 767 mmHg 57%
    19:00 +3°C° 0 mm 1 m/s 767 mmHg 62%
    20:00 +2°C° 0 mm 1 m/s 767 mmHg 64%
    21:00 +2°C° 0 mm 1 m/s 767 mmHg 65%
    22:00 +1°C° 0 mm 1 m/s 767 mmHg 67%
    23:00 -1°C° 0 mm 2 m/s 766 mmHg 67%
    Mostrar mais